Back to catalog

INTELSAT NEW DAWN

AliveCommunicationsGEO
NORAD 37392·PAYLOAD· XX

Launched Apr 22, 2011 from Guiana Space Centre

Loading…

TLE

FreshSource: CelesTrak SupGP

Epoch: Sep 14, 2026, 00:00 UTC

1 37392C 11016A   26257.00000000 -.00000135  00000+0  00000+0 0  2570
2 37392   2.0289  81.4295 0003436  97.4720 142.4016  1.00274248    18

Track INTELSAT NEW DAWN in real time with AllMySat

Download on the App Store